Location: Góry Miechowskie
(50.3599°N, 20.1803°E)
Time: 01:50:55
(UTC+00:00)

Vanguard 2 - Pass Details

Date: 20 September 2024
Orbit: 552 x 2910 km, 32.9° (Epoch: 09 October)

Event Time Altitude Azimuth Distance (km) Brightness Sun altitude
Rises 01:45:03 0° 219° (SW) 2,843 - -24.4°
Reaches altitude 10° 01:48:58 10° 181° (S) 2,190 - -23.9°
Maximum altitude 01:50:19 11° 165° (SSE) 2,229 - -23.7°
Exits shadow 01:50:42 11° 161° (SSE) 2,267 9.8 -23.7°
Drops below altitude 10° 01:51:47 10° 149° (SSE) 2,427 10.0 -23.5°
Sets 01:57:09 0° 117° (ESE) 3,912 11.6 -22.8°
